Regional Weather Roundup
Issued by NWS

Home | Current Version | Previous Version | Graphics & Text | Print | Product List | Glossary Off
Versions: 1 2 3 4 5 6 7 8 9 10 11 12 13 14 15 16 17 18 19 20 21 22 23 24 25 26 27 28 29 30 31 32 33 34 35 36 37 38 39 40 41 42 43 44 45 46 47 48 49 50

000
ASUS43 KFSD 032210
RWRSD

WEATHER ROUNDUP FOR SOUTH DAKOTA
NATIONAL WEATHER SERVICE SIOUX FALLS SD
500 PM CDT FRI JUL 03 2015

NOTE: "FAIR" INDICATES FEW OR NO CLOUDS BELOW 12,000 FEET WITH NO
SIGNIFICANT WEATHER AND/OR OBSTRUCTIONS TO VISIBILITY.


SDZ001>005-009-010-012>017-032300-
NORTHWEST AND NORTH CENTRAL SOUTH DAKOTA

CITY           SKY/WX    TMP DP  RH WIND       PRES   REMARKS
BUFFALO          N/A     85  55  35 S7        29.91F
FAITH            N/A     83  58  42 S8        29.97F
MOBRIDGE       SUNNY     84  64  50 CALM      29.93F HAZE
$$

SDZ012>016-024>037-041>051-057-063-072>074-032300-
SOUTHWEST AND SOUTH CENTRAL SOUTH DAKOTA

CITY           SKY/WX    TMP DP  RH WIND       PRES   REMARKS
RAPID CTY ARPT SUNNY     80  61  52 SE9       30.00F
PIERRE         MOSUNNY   81  62  52 W6        29.95F HAZE
CUSTER         MOSUNNY   73  52  47 VRB5      30.13F
ELLSWORTH AFB  SUNNY     81  61  50 SE12      29.99F
PHILIP         SUNNY     83  60  45 CALM      29.97F HAZE
PINE RIDGE     SUNNY     81  57  43 S5        30.02F
SPEARFISH      FAIR      77  64  65 E13       30.03F
WINNER         FAIR      86  52  30 CALM      29.96F
$$

SDZ004>011-016>023-039-040-032300-
NORTHEAST SOUTH DAKOTA

CITY           SKY/WX    TMP DP  RH WIND       PRES   REMARKS
ABERDEEN       PTSUNNY   82  64  54 E5        29.93F HAZE
WATERTOWN      MOSUNNY   80  64  58 VRB6      29.95F HAZE
BROOKINGS      MOSUNNY   79  64  61 W7        29.97F
SISSETON         N/A     82  63  52 N3        29.91F
$$

SDZ017-020-022-023-036>040-048>070-032300-
SOUTHEAST SOUTH DAKOTA

CITY           SKY/WX    TMP DP  RH WIND       PRES   REMARKS
SIOUX FALLS    PTSUNNY   78  62  57 VRB3      29.97F
HURON          CLOUDY    79  67  66 SE7       29.93F
CHAMBERLAIN    SUNNY     81  64  56 CALM      29.96F
MITCHELL       MOSUNNY   81  65  58 SE5       29.95F
YANKTON        SUNNY     77  63  61 NW6       29.95F
$$

ABBREVIATIONS USED IN REMARKS
   TC - TEMPERATURE IN CELSIUS
  WCI - WIND CHILL INDEX
   HX - HEAT INDEX
  VSB - VISIBILITY



USA.gov is the U.S. government's official web portal to all federal, state and local government web resources and services.